This is the latest recevied weather packets stored in our database for station/object WA6OOO. If no packets are shown the sender has not sent any weather packets the latest 10 day(s).
| Time | Temp. | Humidity | Pressure | Rain* | Wind** | Luminosity | Snow |
|---|---|---|---|---|---|---|---|
| 1787956762 | 28.89° C | 63% | 1014.2 hPa | 0 mm | - | 587 W/m² | - |
| 1787956457 | 28.89° C | 65% | 1014.5 hPa | 0 mm | - | 624 W/m² | - |
| 1787956152 | 28.33° C | 65% | 1014.5 hPa | 0 mm | - | 604 W/m² | - |
| 1787955852 | 28.33° C | 64% | 1014.6 hPa | 0 mm | - | 507 W/m² | - |
| 1787955548 | 28.89° C | 62% | 1014.6 hPa | 0 mm | - | 352 W/m² | - |
| 1787955248 | 29.44° C | 61% | 1014.7 hPa | 0 mm | - | 381 W/m² | - |
| 1787954943 | 29.44° C | 60% | 1014.8 hPa | 0 mm | - | 480 W/m² | - |
| 1787954639 | 29.44° C | 59% | 1014.8 hPa | 0 mm | - | 417 W/m² | - |
| 1787954338 | 30° C | 55% | 1015 hPa | 0 mm | - | 543 W/m² | - |
| 1787954033 | 30.56° C | 55% | 1014.9 hPa | 0 mm | - | 569 W/m² | - |
| 1787953732 | 30° C | 53% | 1015.1 hPa | 0 mm | - | 631 W/m² | - |
| 1787953427 | 30° C | 54% | 1015.3 hPa | 0 mm | - | 364 W/m² | - |
| 1787953125 | 30.56° C | 52% | 1015.2 hPa | 0 mm | - | 490 W/m² | - |
| 1787952825 | 30.56° C | 53% | 1015.3 hPa | 0 mm | - | 512 W/m² | - |
| 1787952524 | 30.56° C | 53% | 1015.5 hPa | 0 mm | - | 606 W/m² | - |
| 1787952222 | 30.56° C | 52% | 1015.6 hPa | 0 mm | - | 714 W/m² | - |
| 1787951919 | 30.56° C | 52% | 1015.6 hPa | 0 mm | - | 621 W/m² | - |
| 1787951615 | 30.56° C | 53% | 1015.7 hPa | 0 mm | - | 447 W/m² | - |
| 1787951311 | 30° C | 54% | 1015.6 hPa | 0 mm | - | 474 W/m² | - |
| 1787951007 | 30° C | 53% | 1015.6 hPa | 0 mm | - | 575 W/m² | - |
| 1787950702 | 30° C | 53% | 1015.9 hPa | 0 mm | - | 599 W/m² | - |
| 1787950398 | 29.44° C | 55% | 1015.9 hPa | 0 mm | - | 670 W/m² | - |
| 1787950094 | 29.44° C | 55% | 1016 hPa | 0 mm | - | 615 W/m² | - |
| 1787949790 | 28.89° C | 56% | 1016.2 hPa | 0 mm | - | 631 W/m² | - |
| 1787949489 | 28.89° C | 59% | 1016 hPa | 0 mm | - | 785 W/m² | - |
* Rain latest hour (hover to see other rain measurements)
** Current wind speed in m/s (hover to see current wind gust speed)